When you browse on this site, cookies collect data to enhance your experience and personalize the content and advertising you see.
Visit our Privacy Policy to learn more. By continuing to use the site, you agree to this use of cookies and data.
  • In United Kingdom
  • List of Countries
  • For 7 days
  • Water Temperature
  • Satellite Maps
  • Weather Map
  • Weather Widgets
  • user-avatar
    Login

    Hourly Weather Multan

    Today, 20 July, Saturday

    Time Temperature Precipitation Wind Pressure Humidity
    00:00 +39°C° 0.4 mm 3 mps 740 mmHg 45%
    01:00 +38°C° 0.4 mm 2 mps 740 mmHg 46%
    02:00 +38°C° 0.4 mm 2 mps 740 mmHg 47%
    03:00 +37°C° 1.5 mm 2 mps 740 mmHg 51%
    04:00 +36°C° 1.5 mm 3 mps 739 mmHg 55%
    05:00 +35°C° 0 mm 1 mps 740 mmHg 54%
    06:00 +35°C° 0.5 mm 1 mps 740 mmHg 51%
    07:00 +36°C° 0.5 mm 1 mps 741 mmHg 49%
    08:00 +38°C° 0.5 mm 2 mps 741 mmHg 46%
    09:00 +39°C° 0 mm 1 mps 741 mmHg 42%
    10:00 +41°C° 0 mm 1 mps 741 mmHg 37%
    11:00 +39°C° 0 mm 0 mps 741 mmHg 33%
    12:00 +43°C° 0 mm 1 mps 740 mmHg 32%
    13:00 +43°C° 0 mm 1 mps 740 mmHg 31%
    14:00 +43°C° 0 mm 1 mps 740 mmHg 30%
    15:00 +43°C° 0 mm 2 mps 739 mmHg 29%
    16:00 +45°C° 0 mm 2 mps 738 mmHg 29%
    17:00 +45°C° 0 mm 2 mps 738 mmHg 28%
    18:00 +43°C° 0 mm 2 mps 738 mmHg 29%
    19:00 +43°C° 0 mm 2 mps 738 mmHg 30%
    20:00 +42°C° 0 mm 2 mps 738 mmHg 31%
    21:00 +42°C° 0.1 mm 2 mps 738 mmHg 32%
    22:00 +41°C° 0.1 mm 1 mps 738 mmHg 33%
    23:00 +41°C° 0.1 mm 1 mps 738 mmHg 35%

    Tomorrow, 21 July, Sunday

    Time Temperature Precipitation Wind Pressure Humidity
    00:00 +40°C° 0.1 mm 1 mps 738 mmHg 36%
    01:00 +40°C° 0.1 mm 1 mps 738 mmHg 37%
    02:00 +39°C° 0.1 mm 1 mps 738 mmHg 39%
    03:00 +39°C° 0.2 mm 1 mps 738 mmHg 40%
    04:00 +37°C° 0.2 mm 1 mps 738 mmHg 42%
    05:00 +37°C° 0.2 mm 1 mps 738 mmHg 43%
    06:00 +39°C° 0 mm 1 mps 739 mmHg 41%
    07:00 +39°C° 0 mm 1 mps 739 mmHg 38%
    08:00 +40°C° 0 mm 1 mps 740 mmHg 36%
    09:00 +42°C° 0 mm 1 mps 740 mmHg 33%
    10:00 +43°C° 0 mm 1 mps 740 mmHg 30%
    11:00 +44°C° 0 mm 1 mps 740 mmHg 26%
    12:00 +45°C° 0 mm 1 mps 739 mmHg 25%
    13:00 +46°C° 0 mm 1 mps 739 mmHg 23%
    14:00 +46°C° 0 mm 1 mps 738 mmHg 21%
    15:00 +46°C° 0 mm 1 mps 738 mmHg 21%
    16:00 +46°C° 0 mm 1 mps 737 mmHg 21%
    17:00 +46°C° 0 mm 1 mps 736 mmHg 21%
    18:00 +47°C° 0 mm 2 mps 737 mmHg 22%
    19:00 +46°C° 0 mm 2 mps 737 mmHg 23%
    20:00 +45°C° 0 mm 2 mps 737 mmHg 24%
    21:00 +45°C° 0 mm 2 mps 737 mmHg 26%
    22:00 +43°C° 0 mm 1 mps 737 mmHg 27%
    23:00 +43°C° 0 mm 1 mps 737 mmHg 28%

    Day after tomorrow, 22 July, Monday

    Time Temperature Precipitation Wind Pressure Humidity
    00:00 +42°C° 0 mm 1 mps 737 mmHg 30%
    01:00 +41°C° 0 mm 1 mps 737 mmHg 33%
    02:00 +40°C° 0 mm 1 mps 736 mmHg 35%
    03:00 +40°C° 0 mm 1 mps 736 mmHg 36%
    04:00 +40°C° 0 mm 1 mps 736 mmHg 36%
    05:00 +39°C° 0 mm 1 mps 736 mmHg 36%
    06:00 +40°C° 0 mm 1 mps 737 mmHg 34%
    07:00 +41°C° 0 mm 1 mps 737 mmHg 33%
    08:00 +42°C° 0 mm 1 mps 738 mmHg 31%
    09:00 +43°C° 0 mm 2 mps 737 mmHg 28%
    10:00 +46°C° 0 mm 2 mps 737 mmHg 25%
    11:00 +47°C° 0 mm 2 mps 737 mmHg 22%
    12:00 +48°C° 0 mm 2 mps 737 mmHg 21%
    13:00 +49°C° 0 mm 2 mps 736 mmHg 20%
    14:00 +49°C° 0 mm 2 mps 736 mmHg 18%
    15:00 +49°C° 0 mm 2 mps 735 mmHg 18%
    16:00 +49°C° 0 mm 2 mps 735 mmHg 18%
    17:00 +49°C° 0 mm 2 mps 735 mmHg 18%
    18:00 +48°C° 0 mm 2 mps 735 mmHg 19%
    19:00 +48°C° 0 mm 2 mps 735 mmHg 20%
    20:00 +47°C° 0 mm 2 mps 735 mmHg 22%
    21:00 +46°C° 0 mm 3 mps 735 mmHg 23%
    22:00 +45°C° 0 mm 3 mps 735 mmHg 24%
    23:00 +45°C° 0 mm 3 mps 735 mmHg 25%

    23 July, Tuesday

    Time Temperature Precipitation Wind Pressure Humidity
    00:00 +44°C° 0 mm 3 mps 735 mmHg 26%
    01:00 +44°C° 0 mm 3 mps 735 mmHg 27%
    02:00 +43°C° 0 mm 4 mps 735 mmHg 28%
    03:00 +43°C° 0 mm 4 mps 735 mmHg 29%
    04:00 +42°C° 0 mm 5 mps 735 mmHg 29%
    05:00 +42°C° 0 mm 5 mps 735 mmHg 30%
    06:00 +44°C° 0 mm 6 mps 736 mmHg 29%
    07:00 +44°C° 0 mm 6 mps 736 mmHg 29%
    08:00 +45°C° 0 mm 7 mps 736 mmHg 28%
    09:00 +47°C° 0 mm 7 mps 736 mmHg 25%
    10:00 +48°C° 0 mm 6 mps 736 mmHg 23%
    11:00 +51°C° 0 mm 6 mps 736 mmHg 20%
    12:00 +52°C° 0 mm 5 mps 736 mmHg 18%
    13:00 +53°C° 0 mm 5 mps 735 mmHg 17%
    14:00 +54°C° 0 mm 5 mps 735 mmHg 15%
    15:00 +53°C° 0 mm 5 mps 734 mmHg 16%
    16:00 +52°C° 0 mm 4 mps 734 mmHg 16%
    17:00 +52°C° 0 mm 4 mps 733 mmHg 16%
    18:00 +51°C° 0 mm 4 mps 733 mmHg 17%
    19:00 +50°C° 0 mm 4 mps 734 mmHg 18%
    20:00 +49°C° 0 mm 5 mps 734 mmHg 19%
    21:00 +48°C° 0 mm 5 mps 734 mmHg 20%
    22:00 +48°C° 0 mm 6 mps 734 mmHg 21%
    23:00 +47°C° 0 mm 6 mps 734 mmHg 22%

    24 July, Wednesday

    Time Temperature Precipitation Wind Pressure Humidity
    00:00 +46°C° 0 mm 7 mps 734 mmHg 23%
    01:00 +46°C° 0 mm 7 mps 734 mmHg 23%
    02:00 +45°C° 0 mm 8 mps 734 mmHg 24%
    03:00 +45°C° 0 mm 8 mps 734 mmHg 26%
    04:00 +44°C° 0 mm 8 mps 734 mmHg 27%
    05:00 +44°C° 0 mm 8 mps 734 mmHg 29%
    06:00 +44°C° 0 mm 8 mps 734 mmHg 28%
    07:00 +45°C° 0 mm 9 mps 735 mmHg 27%
    08:00 +47°C° 0 mm 9 mps 735 mmHg 26%
    09:00 +48°C° 0 mm 9 mps 735 mmHg 24%
    10:00 +49°C° 0 mm 9 mps 735 mmHg 21%
    11:00 +52°C° 0 mm 10 mps 735 mmHg 19%
    12:00 +53°C° 0 mm 9 mps 734 mmHg 18%
    13:00 +54°C° 0 mm 9 mps 734 mmHg 17%
    14:00 +54°C° 0 mm 9 mps 733 mmHg 16%
    15:00 +54°C° 0 mm 9 mps 733 mmHg 16%
    16:00 +54°C° 0 mm 8 mps 732 mmHg 16%
    17:00 +54°C° 0 mm 8 mps 732 mmHg 16%
    18:00 +52°C° 0 mm 7 mps 732 mmHg 17%
    19:00 +51°C° 0 mm 7 mps 732 mmHg 19%
    20:00 +49°C° 0 mm 6 mps 732 mmHg 20%
    21:00 +49°C° 0 mm 7 mps 733 mmHg 21%
    22:00 +47°C° 0 mm 7 mps 733 mmHg 21%
    23:00 +48°C° 0 mm 8 mps 733 mmHg 22%

    25 July, Thursday

    Time Temperature Precipitation Wind Pressure Humidity
    00:00 +46°C° 0 mm 8 mps 733 mmHg 25%
    01:00 +45°C° 0 mm 9 mps 733 mmHg 27%
    02:00 +44°C° 0 mm 9 mps 733 mmHg 30%
    03:00 +43°C° 0 mm 9 mps 734 mmHg 32%
    04:00 +42°C° 0 mm 9 mps 734 mmHg 34%
    05:00 +40°C° 0 mm 9 mps 734 mmHg 36%
    06:00 +40°C° 0 mm 9 mps 734 mmHg 36%
    07:00 +42°C° 0 mm 9 mps 734 mmHg 35%
    08:00 +42°C° 0 mm 9 mps 735 mmHg 35%
    09:00 +44°C° 0 mm 9 mps 735 mmHg 31%
    10:00 +46°C° 0 mm 8 mps 735 mmHg 28%
    11:00 +48°C° 0 mm 8 mps 735 mmHg 24%
    12:00 +50°C° 0 mm 7 mps 735 mmHg 23%
    13:00 +51°C° 0 mm 6 mps 734 mmHg 21%
    14:00 +52°C° 0 mm 6 mps 734 mmHg 19%
    15:00 +52°C° 0 mm 6 mps 733 mmHg 19%
    16:00 +52°C° 0 mm 6 mps 733 mmHg 19%
    17:00 +52°C° 0 mm 6 mps 733 mmHg 19%
    18:00 +51°C° 0 mm 6 mps 733 mmHg 21%
    19:00 +48°C° 0 mm 6 mps 733 mmHg 22%
    20:00 +47°C° 0 mm 6 mps 733 mmHg 24%
    21:00 +46°C° 0.2 mm 6 mps 733 mmHg 26%
    22:00 +46°C° 0.2 mm 6 mps 734 mmHg 28%
    23:00 +45°C° 0.2 mm 6 mps 734 mmHg 30%
    Show more